Weather Roundup
Issued by NWS Springfield, MO

Home | Current Version | Previous Version | Text Only | Print | Product List | Glossary On
Versions: 1 2 3 4 5 6 7 8 9 10 11 12 13 14 15 16 17 18 19 20 21 22 23 24 25 26 27 28 29 30 31 32 33 34 35 36 37 38 39 40 41 42 43 44 45 46 47 48 49 50
000
NZUS99 KSGF 222059
HRRSGF

HOURLY WEATHER
NATIONAL WEATHER SERVICE SPRINGFIELD MO
400 PM CDT TUE JUL 22 2014

......SGF CWA......

CITY           SKY/WX    TMP DP  RH WIND       PRES   REMARKS
SPRINGFIELD    MOSUNNY   93  74  53 VRB5      30.07F HX 103
JOPLIN         PTSUNNY   93  73  52 VRB5      30.06S HX 102
WEST PLAINS    MOSUNNY   87  71  58 VRB3      30.10F HX  93
ROLLA          PTSUNNY   92  70  48 SW9       30.03F HX  97
OSAGE BEACH    MOSUNNY   93  73  52 W8        30.02F HX 102
BRANSON        PTSUNNY   97  68  38 NW5       30.09F HX 101

......SURROUNDING SGF CWA......

CITY           SKY/WX    TMP DP  RH WIND       PRES   REMARKS
CHANUTE        MOSUNNY   97  73  45 VRB5      30.04F HX 107
PARSONS        MOSUNNY   97  73  45 W8        30.06S HX 107
COFFEYVILLE    PTSUNNY   96  74  48 W8        30.04F HX 107
EMPORIA        SUNNY    100  69  36 VRB6      30.03S HX 106
SILOAM SPRINGS PTSUNNY   90  72  55 NW3       30.10F HX  96
HARRISON AR    MOSUNNY   93  69  45 CALM      30.10F HX  98
NEAR YELLVILLE MOSUNNY   90  68  48 SE7       30.08S HX  93

......KANSAS AND MISSOURI......

CITY           SKY/WX    TMP DP  RH WIND       PRES   REMARKS
KANSAS CTY INT MOSUNNY   94  74  52 SW10      30.00F HX 104
DOWNTOWN KC    MOSUNNY   98  71  41 SW9       29.98F HX 106
COLUMBIA       MOSUNNY   93  76  57 SW14      30.00F HX 105
SEDALIA        MOSUNNY   91  77  63 SW8       30.01F HAZE    HX 104
ST JOSEPH      SUNNY     94  79  61 SW8       29.99S HX 111
ST LOUIS       PTSUNNY   91  72  53 S13       30.01R HX  98
SPIRIT OF STL  CLOUDY    89  73  59 S5        29.99R HX  97
KIRKSVILLE     MOSUNNY   90  78  68 W9G18     29.98F HX 104
WICHITA        MOSUNNY   97  71  42 S7        30.04F HX 104
TOPEKA         PTSUNNY  102  66  30 W13       29.99F HX 106
OLATHE         PTSUNNY   95  74  50 SW12      30.01F HX 105

......TENNESSEE......

CITY           SKY/WX    TMP DP  RH WIND       PRES   REMARKS
MEMPHIS        MOSUNNY   89  69  51 N5        30.06F HX  93
NASHVILLE      PTSUNNY   90  69  50 SW3       30.06F HX  94

......ARKANSAS.......

CITY           SKY/WX    TMP DP  RH WIND       PRES   REMARKS
FAYETTEVILLE   MOSUNNY   90  73  57 CALM      30.09F HX  98
FT SMITH       SUNNY     92  71  50 E8        30.05F HX  98
LITTLE ROCK    MOSUNNY   88  66  48 S5        30.07F HX  90

......OKLAHOMA.......

CITY           SKY/WX    TMP DP  RH WIND       PRES   REMARKS
TULSA          PTSUNNY   94  73  50 E5        30.04F HX 103
PONCA CITY     SUNNY     95  72  47 W6        30.04F HX 103
MCALESTER      PTSUNNY   91  74  57 SE6       30.07F HX 100
OKLAHOMA CITY  MOSUNNY   95  67  39 CALM      30.07F HX  99

......IOWA............

CITY           SKY/WX    TMP DP  RH WIND       PRES   REMARKS
DES MOINES     MOSUNNY   91  74  57 N12       30.01S HX 100
QUAD CITIES    MOSUNNY   86  76  71 SW9       29.95F HX  96

......ILLINOIS........

CITY           SKY/WX    TMP DP  RH WIND       PRES   REMARKS
QUINCY         PTSUNNY   84  76  76 S8        29.99S HX  93
CHICAGO        PTSUNNY   90  71  53 SW16      29.93S HX  96




USA.gov is the U.S. government's official web portal to all federal, state and local government web resources and services.